Location: Observatory
(52.1446°N, 0.4624°W)
Time: 06:21:42
(UTC+00:00)

ISS - Pass Details

Date: 25 January 2019
Orbit: 403 x 411 km, 51.6° (Epoch: 21 February)

Event Time Altitude Azimuth Distance (km) Brightness Sun altitude
Rises 19:00:13 0° 236° (SW) 2,330 1.0 -21.8°
Reaches altitude 10° 19:02:21 10° 229° (SW) 1,474 -0.3 -22.1°
Enters shadow 19:04:24 30° 204° (SSW) 760 -2.3 -22.4°
